Location: Krakow
(50.0830°N, 19.9170°E)
Time: 13:55:21
(UTC+01:00)

Altair - Pass Details

Date: 07 December 2023
Orbit: 1501 x 1682 km, 47.2° (Epoch: 02 March)

Event Time Altitude Azimuth Distance (km) Brightness Sun altitude
Rises 07:16:48 0° 222° (SW) 4,846 10.0 -1.8°
Reaches altitude 10° 07:20:07 10° 217° (SW) 3,838 9.6 -1.4°
Maximum altitude 07:29:11 46° 148° (SSE) 2,022 8.9 -0.2°
Drops below altitude 10° 07:37:57 10° 79° (E) 3,716 10.2 0.9°
Sets 07:41:06 0° 74° (ENE) 4,681 10.6 1.3°
